Location: Newark
(50.0336°N, 22.0047°E)
Time: 16:59:34
(UTC+00:00)

Envisat - Pass Details

Date: 30 January 2020
Orbit: 764 x 766 km, 98.1° (Epoch: 17 February)

Event Time Altitude Azimuth Distance (km) Brightness Sun altitude
Rises 16:03:04 0° 161° (SSE) 3,221 6.2 -6.9°
Reaches altitude 10° 16:05:21 10° 161° (SSE) 2,299 5.5 -7.3°
Maximum altitude 16:10:26 83° 74° (ENE) 779 3.0 -8.1°
Drops below altitude 10° 16:15:33 10° 347° (NNW) 2,315 5.5 -8.8°
Sets 16:17:51 0° 347° (NNW) 3,245 6.2 -9.2°
